Fosston, MN

12:19 PM CDT on March 25, 2017 (GMT -0500)
Fosston Municipal

Weather History for KFSE - April, 2012

Change the Weather History Date:

Tuesday, April 17, 2012

  Actual Average Record
Temperature  
Mean Temperature 38 °F -  
Max Temperature 57 °F 55 °F 75 °F (1958)
Min Temperature 19 °F 29 °F 11 °F (1953)
Degree Days  
Heating Degree Days 27    
Moisture  
Dew Point 26 °F    
Average Humidity 60    
Maximum Humidity 93    
Minimum Humidity 36    
Precipitation  
Precipitation 0.00 in - - ()
Sea Level Pressure  
Sea Level Pressure 30.07 in    
Wind  
Wind Speed 6 mph (South)    
Max Wind Speed 17 mph    
Max Gust Speed 25 mph    
Visibility 10 miles    
Events      
Averages and records for this station are not official NWS values.
T = Trace of Precipitation, MM = Missing Value Source: NWS Daily Summary

Daily Weather History Graph

Daily Weather History Graph

Search for Another Location

Airport or City:

Trip Planner

Search our weather history database for the weather conditions in past years. The results will help you decide how hot, cold, wet, or windy it might be!

Date:

Astronomy

Apr. 17, 2012 Rise Set
Actual Time 6:29 AM CDT 8:16 PM CDT
Civil Twilight 5:57 AM CDT 8:49 PM CDT
Nautical Twilight 5:17 AM CDT 9:29 PM CDT
Astronomical Twilight 4:33 AM CDT 10:13 PM CDT
Moon 4:40 AM CDT (4/17) 4:59 PM CDT (4/17)
Length of Visible Light 14h 52m
Length of Day
13h 46m
Waning Crescent, 12% of the Moon is Illuminated
Apr 17
Waning Crescent
Apr 21
New
Apr 29
First Quarter
May 5
Full
May 12
Last Quarter

Hourly Weather History & Observations

Time (CDT) Temp. Windchill Dew Point Humidity Pressure Visibility Wind Dir Wind Speed Gust Speed Precip Events Conditions
12:15 AM 24.8 °F - 12.2 °F 59% 30.13 in 10.0 mi Calm Calm - N/A   Clear
12:35 AM 23.0 °F - 10.4 °F 59% 30.13 in 10.0 mi Calm Calm - N/A   Clear
12:55 AM 21.2 °F - 10.4 °F 63% 30.14 in 10.0 mi Calm Calm - N/A   Clear
1:14 AM 21.2 °F - 14.0 °F 74% 30.14 in 10.0 mi Calm Calm - N/A   Clear
1:35 AM 21.2 °F - 12.2 °F 68% 30.13 in 10.0 mi Calm Calm - N/A   Clear
1:55 AM 21.2 °F 13.6 °F 15.8 °F 80% 30.13 in 10.0 mi South 5.8 mph - N/A   Clear
2:14 AM 21.2 °F - 15.8 °F 80% 30.14 in 10.0 mi Calm Calm - N/A   Clear
2:35 AM 19.4 °F - 14.0 °F 80% 30.14 in 10.0 mi Calm Calm - N/A   Clear
2:55 AM 21.2 °F - 12.2 °F 68% 30.14 in 10.0 mi Calm Calm - N/A   Clear
3:14 AM 21.2 °F 12.6 °F 15.8 °F 80% 30.14 in 10.0 mi South 6.9 mph - N/A   Clear
3:35 AM 19.4 °F 12.8 °F 15.8 °F 86% 30.14 in 10.0 mi South 4.6 mph - N/A   Clear
3:55 AM 19.4 °F 12.8 °F 15.8 °F 86% 30.15 in 10.0 mi South 4.6 mph - N/A   Clear
4:14 AM 19.4 °F - 15.8 °F 86% 30.15 in 10.0 mi Calm Calm - N/A   Clear
4:35 AM 21.2 °F 13.6 °F 15.8 °F 80% 30.15 in 10.0 mi SSE 5.8 mph - N/A   Clear
4:55 AM 21.2 °F 13.6 °F 17.6 °F 86% 30.16 in 10.0 mi SSE 5.8 mph - N/A   Clear
5:14 AM 19.4 °F 10.4 °F 15.8 °F 86% 30.16 in 10.0 mi South 6.9 mph - N/A   Clear
5:35 AM 19.4 °F 12.8 °F 15.8 °F 86% 30.16 in 10.0 mi South 4.6 mph - N/A   Clear
5:55 AM 19.4 °F 10.4 °F 15.8 °F 86% 30.16 in 10.0 mi South 6.9 mph - N/A   Clear
6:14 AM 19.4 °F 10.4 °F 15.8 °F 86% 30.16 in 10.0 mi South 6.9 mph - N/A   Clear
6:35 AM 19.4 °F 11.5 °F 15.8 °F 86% 30.17 in 10.0 mi South 5.8 mph - N/A   Clear
6:55 AM 19.4 °F 11.5 °F 17.6 °F 93% 30.16 in 10.0 mi South 5.8 mph - N/A   Clear
7:35 AM 26.6 °F 19.1 °F 21.2 °F 80% 30.17 in 10.0 mi South 6.9 mph - N/A   Clear
7:55 AM 28.4 °F 22.2 °F 21.2 °F 74% 30.17 in 10.0 mi South 5.8 mph - N/A   Clear
8:14 AM 30.2 °F 23.4 °F 23.0 °F 75% 30.17 in 10.0 mi South 6.9 mph - N/A   Clear
8:35 AM 30.2 °F 23.4 °F 23.0 °F 75% 30.17 in 10.0 mi South 6.9 mph - N/A   Clear
8:55 AM 33.8 °F 25.8 °F 23.0 °F 65% 30.16 in 10.0 mi SSW 10.4 mph - N/A   Clear
9:15 AM 35.6 °F 29.9 °F 23.0 °F 60% 30.16 in 10.0 mi South 6.9 mph - N/A   Clear
9:35 AM 35.6 °F 29.2 °F 24.8 °F 65% 30.16 in 10.0 mi South 8.1 mph - N/A   Clear
9:54 AM 37.4 °F 29.8 °F 24.8 °F 60% 30.16 in 10.0 mi SSW 11.5 mph 17.3 mph N/A   Clear
10:15 AM 39.2 °F 32.0 °F 26.6 °F 61% 30.16 in 10.0 mi South 11.5 mph 16.1 mph N/A   Clear
10:35 AM 41.0 °F 37.1 °F 26.6 °F 57% 30.15 in 10.0 mi SSW 5.8 mph 17.3 mph N/A   Clear
10:54 AM 42.8 °F 38.0 °F 26.6 °F 53% 30.15 in 10.0 mi South 8.1 mph 18.4 mph N/A   Clear
11:15 AM 42.8 °F 35.8 °F 26.6 °F 53% 30.15 in 10.0 mi South 13.8 mph 18.4 mph N/A   Clear
11:35 AM 44.6 °F 39.7 °F 26.6 °F 49% 30.15 in 10.0 mi South 9.2 mph 18.4 mph N/A   Clear
11:54 AM 46.4 °F - 26.6 °F 46% 30.15 in 10.0 mi Calm Calm - N/A   Clear
12:15 PM 46.4 °F 40.7 °F 26.6 °F 46% 30.15 in 10.0 mi South 12.7 mph - N/A   Clear
12:35 PM 48.2 °F - 28.4 °F 46% 30.14 in 10.0 mi South 10.4 mph - N/A   Clear
12:54 PM 48.2 °F - 28.4 °F 46% 30.13 in 10.0 mi Calm Calm - N/A   Clear
1:15 PM 48.2 °F - 28.4 °F 46% 30.12 in 10.0 mi South 9.2 mph - N/A   Clear
1:35 PM 50.0 °F - 28.4 °F 43% 30.11 in 10.0 mi SSW 4.6 mph 9.2 mph N/A   Clear
1:54 PM 51.8 °F - 28.4 °F 41% 30.09 in 10.0 mi SSW 13.8 mph 21.9 mph N/A   Clear
2:15 PM 51.8 °F - 28.4 °F 41% 30.08 in 10.0 mi South 13.8 mph 19.6 mph N/A   Clear
2:34 PM 53.6 °F - 28.4 °F 38% 30.07 in 10.0 mi South 15.0 mph 20.7 mph N/A   Clear
2:55 PM 53.6 °F - 30.2 °F 41% 30.06 in 10.0 mi South 11.5 mph 18.4 mph N/A   Scattered Clouds
3:15 PM 55.4 °F - 30.2 °F 38% 30.05 in 10.0 mi South 12.7 mph 18.4 mph N/A   Clear
3:34 PM 55.4 °F - 30.2 °F 38% 30.04 in 10.0 mi SSE 8.1 mph 20.7 mph N/A   Scattered Clouds
3:55 PM 55.4 °F - 30.2 °F 38% 30.03 in 10.0 mi South 12.7 mph 19.6 mph N/A   Scattered Clouds
4:15 PM 57.2 °F - 30.2 °F 36% 30.02 in 10.0 mi SSE 13.8 mph 20.7 mph N/A   Scattered Clouds
4:35 PM 55.4 °F - 30.2 °F 38% 30.01 in 10.0 mi South 15.0 mph 20.7 mph N/A   Clear
4:55 PM 55.4 °F - 30.2 °F 38% 30.00 in 10.0 mi South 17.3 mph 25.3 mph N/A   Scattered Clouds
5:14 PM 55.4 °F - 32.0 °F 41% 30.00 in 10.0 mi South 13.8 mph 21.9 mph N/A   Scattered Clouds
5:35 PM 53.6 °F - 30.2 °F 41% 30.00 in 10.0 mi South 15.0 mph 18.4 mph N/A   Mostly Cloudy
5:55 PM 53.6 °F - 32.0 °F 44% 29.99 in 10.0 mi SSE 12.7 mph 20.7 mph N/A   Mostly Cloudy
6:14 PM 53.6 °F - 32.0 °F 44% 29.99 in 10.0 mi SSE 11.5 mph - N/A   Mostly Cloudy
6:35 PM 53.6 °F - 32.0 °F 44% 29.98 in 10.0 mi South 12.7 mph 16.1 mph N/A   Scattered Clouds
6:55 PM 53.6 °F - 33.8 °F 47% 29.99 in 10.0 mi South 13.8 mph - N/A   Scattered Clouds
7:14 PM 53.6 °F - 33.8 °F 47% 29.98 in 10.0 mi SSE 6.9 mph - N/A   Mostly Cloudy
7:35 PM 51.8 °F - 33.8 °F 50% 29.97 in 10.0 mi SSE 13.8 mph - N/A   Mostly Cloudy
7:55 PM 51.8 °F - 33.8 °F 50% 29.96 in 10.0 mi SSE 13.8 mph 17.3 mph N/A   Mostly Cloudy
8:14 PM 51.8 °F - 35.6 °F 54% 29.95 in 10.0 mi SE 10.4 mph - N/A   Mostly Cloudy
8:35 PM 51.8 °F - 35.6 °F 54% 29.94 in 10.0 mi SSE 11.5 mph - N/A   Mostly Cloudy
8:55 PM 51.8 °F - 35.6 °F 54% 29.93 in 10.0 mi SE 9.2 mph 17.3 mph N/A   Clear
9:15 PM 50.0 °F - 35.6 °F 58% 29.94 in 10.0 mi SE 8.1 mph - N/A   Mostly Cloudy
9:35 PM 50.0 °F - 35.6 °F 58% 29.93 in 10.0 mi SE 8.1 mph - N/A   Scattered Clouds
9:55 PM 50.0 °F - 37.4 °F 62% 29.92 in 10.0 mi SE 5.8 mph - N/A   Clear
10:14 PM 48.2 °F - 37.4 °F 66% 29.91 in 10.0 mi SE 9.2 mph - N/A   Clear
10:35 PM 48.2 °F - 37.4 °F 66% 29.90 in 10.0 mi SSE 12.7 mph 17.3 mph N/A   Scattered Clouds
10:55 PM 50.0 °F - 39.2 °F 66% 29.89 in 10.0 mi SE 8.1 mph - N/A   Scattered Clouds
11:15 PM 48.2 °F - 37.4 °F 66% 29.88 in 10.0 mi SE 6.9 mph - N/A   Scattered Clouds
11:35 PM 48.2 °F - 37.4 °F 66% 29.87 in 10.0 mi SSE 9.2 mph - N/A   Mostly Cloudy
11:55 PM 48.2 °F - 39.2 °F 71% 29.87 in 10.0 mi SSE 11.5 mph - N/A   Overcast